Wisconsin Dells, Wisconsin, United States (53965)
Lat: 43.63N, Lon: 89.77W
Wx Zone: WIZ057
Local Info
Past Weather Observations for Wednesday, July 16, 2014

NOTE: This archive is for the closest National Weather Service station to Wisconsin Dells. Information may differ from the station used for current weather conditions.

Click here for Long-term Archive

Time Weather Temperature Dewpoint Humidity Pressure Winds Precip Visibility
23:55
Clear
52°F / 11°C 48°F / 9°C 88% 30.06 in
(1018 mb)
Calm - 10SM
23:35
Clear
52°F / 11°C 48°F / 9°C 88% 30.06 in
(1018 mb)
Calm - 10SM
23:15
Clear
52°F / 11°C 48°F / 9°C 88% 30.06 in
(1018 mb)
Calm - 10SM
22:55
Clear
52°F / 11°C 48°F / 9°C 88% 30.06 in
(1018 mb)
Calm - 10SM
22:35
Clear
52°F / 11°C 48°F / 9°C 88% 30.06 in
(1018 mb)
Calm - 10SM
22:15
Clear
54°F / 12°C 48°F / 9°C 82% 30.06 in
(1018 mb)
Calm - 10SM
21:55
Clear
54°F / 12°C 48°F / 9°C 82% 30.06 in
(1018 mb)
Calm - 10SM
21:35
Clear
54°F / 12°C 48°F / 9°C 82% 30.06 in
(1018 mb)
Calm - 10SM
21:15
Clear
55°F / 13°C 48°F / 9°C 77% 30.06 in
(1018 mb)
Calm - 10SM
20:55
Clear
55°F / 13°C 48°F / 9°C 77% 30.06 in
(1018 mb)
Calm - 10SM
20:35
Clear
55°F / 13°C 50°F / 10°C 82% 30.04 in
(1017 mb)
Calm - 10SM
20:15
Clear
57°F / 14°C 50°F / 10°C 77% 30.04 in
(1017 mb)
Calm - 10SM
19:55
Clear
59°F / 15°C 50°F / 10°C 72% 30.04 in
(1017 mb)
Calm - 10SM
19:35
Clear
63°F / 17°C 48°F / 9°C 59% 30.04 in
(1017 mb)
Calm - 10SM
19:15
Clear
66°F / 19°C 45°F / 7°C 46% 30.04 in
(1017 mb)
Calm - 10SM
18:55
Clear
66°F / 19°C 45°F / 7°C 46% 30.04 in
(1017 mb)
Calm - 10SM
18:35
Clear
68°F / 20°C 41°F / 5°C 38% 30.04 in
(1017 mb)
Calm - 10SM
18:15
Clear
70°F / 21°C 39°F / 4°C 33% 30.04 in
(1017 mb)
Calm - 10SM
17:55
Clear
70°F / 21°C 39°F / 4°C 33% 30.04 in
(1017 mb)
Calm - 10SM
17:35
Partly Cloudy
72°F / 22°C 43°F / 6°C 36% 30.04 in
(1017 mb)
Calm - 10SM
17:15
Partly Cloudy
72°F / 22°C 43°F / 6°C 36% 30.04 in
(1017 mb)
Calm - 10SM
16:55
Clear
72°F / 22°C 43°F / 6°C 36% 30.04 in
(1017 mb)
Calm - 10SM
16:35
Clear
70°F / 21°C 43°F / 6°C 38% 30.04 in
(1017 mb)
Calm - 10SM
16:15
Partly Cloudy
68°F / 20°C 45°F / 7°C 43% 30.04 in
(1017 mb)
Calm - 10SM
15:55
Mostly Cloudy
72°F / 22°C 45°F / 7°C 38% 30.04 in
(1017 mb)
NE 8.1 mph
(NE 13 kph)
- 10SM
15:35
Mostly Cloudy
72°F / 22°C 43°F / 6°C 36% 30.04 in
(1017 mb)
NE 4.6 mph
(NE 7 kph)
- 10SM
15:15
Mostly Cloudy
72°F / 22°C 43°F / 6°C 36% 30.04 in
(1017 mb)
ENE 8.1 mph
(ENE 13 kph)
- 10SM
14:55
Mostly Cloudy
72°F / 22°C 41°F / 5°C 33% 30.04 in
(1017 mb)
Calm - 10SM
14:35
Partly Cloudy
70°F / 21°C 43°F / 6°C 38% 30.04 in
(1017 mb)
E 5.8 mph
(E 9 kph)
- 10SM
14:15
Mostly Cloudy
72°F / 22°C 41°F / 5°C 33% 30.04 in
(1017 mb)
Calm - 10SM
13:55
Overcast
72°F / 22°C 43°F / 6°C 36% 30.04 in
(1017 mb)
Calm - 10SM
13:35
Overcast
70°F / 21°C 43°F / 6°C 38% 30.04 in
(1017 mb)
NW 6.9 mph
(NW 11 kph)
- 10SM
13:15
Overcast
70°F / 21°C 45°F / 7°C 40% 30.04 in
(1017 mb)
NE 3.5 mph
(NE 6 kph)
- 10SM
12:55
Overcast
68°F / 20°C 43°F / 6°C 40% 30.04 in
(1017 mb)
Calm - 10SM
12:35
Mostly Cloudy
68°F / 20°C 43°F / 6°C 40% 30.04 in
(1017 mb)
ENE 8.1 mph
(ENE 13 kph)
- 10SM
12:15
Mostly Cloudy
70°F / 21°C 43°F / 6°C 38% 30.04 in
(1017 mb)
N 5.8 mph
(N 9 kph)
- 10SM
11:55
Mostly Cloudy
70°F / 21°C 45°F / 7°C 40% 30.04 in
(1017 mb)
NE 6.9 mph
(NE 11 kph)
- 10SM
11:35
Partly Cloudy
70°F / 21°C 43°F / 6°C 38% 30.04 in
(1017 mb)
NE 8.1 mph
(NE 13 kph)
- 10SM
11:15
Partly Cloudy
68°F / 20°C 43°F / 6°C 40% 30.04 in
(1017 mb)
NNW 3.5 mph
(NNW 6 kph)
- 10SM
10:55
Partly Cloudy
68°F / 20°C 45°F / 7°C 43% 30.04 in
(1017 mb)
NNW 10.4 mph
(NNW 17 kph)
- 10SM
10:35
Partly Cloudy
68°F / 20°C 46°F / 8°C 46% 30.06 in
(1018 mb)
N 5.8 mph
(N 9 kph)
- 10SM
10:15
Partly Cloudy
66°F / 19°C 48°F / 9°C 52% 30.06 in
(1018 mb)
N 4.6 mph
(N 7 kph)
- 10SM
09:55
Partly Cloudy
66°F / 19°C 48°F / 9°C 52% 30.06 in
(1018 mb)
Calm - 10SM
09:35
Clear
64°F / 18°C 48°F / 9°C 56% 30.06 in
(1018 mb)
Calm - 10SM
09:15
Clear
63°F / 17°C 48°F / 9°C 59% 30.06 in
(1018 mb)
Calm - 10SM
08:55
Clear
63°F / 17°C 48°F / 9°C 59% 30.06 in
(1018 mb)
Calm - 10SM
08:35
Clear
61°F / 16°C 48°F / 9°C 63% 30.06 in
(1018 mb)
Calm - 10SM
08:15
Clear
59°F / 15°C 50°F / 10°C 72% 30.06 in
(1018 mb)
Calm - 10SM
07:35
Clear
59°F / 15°C 52°F / 11°C 77% 30.06 in
(1018 mb)
Calm - 10SM
07:15
Clear
57°F / 14°C 50°F / 10°C 77% 30.06 in
(1018 mb)
Calm - 10SM
06:55
Clear
55°F / 13°C 52°F / 11°C 88% 30.04 in
(1017 mb)
NE 3.5 mph
(NE 6 kph)
- 10SM
06:35
Clear
54°F / 12°C 52°F / 11°C 94% 30.04 in
(1017 mb)
Calm - 10SM
06:15
Clear
52°F / 11°C 50°F / 10°C 94% 30.04 in
(1017 mb)
Calm - 10SM
05:55
Clear
52°F / 11°C 50°F / 10°C 94% 30.04 in
(1017 mb)
Calm - 10SM
05:35
Clear
48°F / 9°C 48°F / 9°C 100% 30.04 in
(1017 mb)
Calm - 7SM
05:15
Obscured
Fog And Mist
46°F / 8°C 46°F / 8°C 100% 30.04 in
(1017 mb)
Calm - 1 3/4SM
04:55
Clear
Fog And Mist
48°F / 9°C 46°F / 8°C 94% 30.04 in
(1017 mb)
Calm - 4SM
04:35
Obscured
Fog
46°F / 8°C 45°F / 7°C 93% 30.04 in
(1017 mb)
Calm - 1/2SM
04:15
Clear
48°F / 9°C 46°F / 8°C 94% 30.04 in
(1017 mb)
Calm - 10SM
03:55
Partly Cloudy
46°F / 8°C 46°F / 8°C 100% 30.04 in
(1017 mb)
Calm - 10SM
03:35
Clear
48°F / 9°C 48°F / 9°C 100% 30.04 in
(1017 mb)
Calm - 10SM
03:15
Partly Cloudy
50°F / 10°C 48°F / 9°C 94% 30.01 in
(1016 mb)
Calm - 10SM
02:55
Partly Cloudy
48°F / 9°C 48°F / 9°C 100% 30.04 in
(1017 mb)
Calm - 10SM
02:35
Clear
50°F / 10°C 48°F / 9°C 94% 30.01 in
(1016 mb)
Calm - 10SM
02:15
Partly Cloudy
50°F / 10°C 50°F / 10°C 100% 30.01 in
(1016 mb)
Calm - 10SM
01:55
Partly Cloudy
50°F / 10°C 48°F / 9°C 94% 30.01 in
(1016 mb)
Calm - 10SM
01:35
Clear
50°F / 10°C 48°F / 9°C 94% 30.01 in
(1016 mb)
Calm - 10SM
01:15
Clear
Fog And Mist
48°F / 9°C 48°F / 9°C 100% 30.01 in
(1016 mb)
Calm - 2SM
00:55
Clear
48°F / 9°C 48°F / 9°C 100% 30.01 in
(1016 mb)
Calm - 10SM
00:35
Clear
52°F / 11°C 50°F / 10°C 94% 30.01 in
(1016 mb)
Calm - 10SM
00:15
Obscured
Fog
48°F / 9°C 48°F / 9°C 100% 30.01 in
(1016 mb)
Calm - M1/4SM
Time Weather Temperature Dewpoint Humidity Pressure Winds Precip Visibility


Weather for websites

WeatherForYou.com, LLC is not responsible for any damages or problems caused by this service. Current weather conditions are obtained from the closest station including government and personal stations which may have varying degrees of accuracy. Weather forecasts are derived from the NOAA NDFD. Like all things, this site belongs to Jesus Christ... He just trusts me to maintain it. If you have any questions or comments email webmaster@weatherforyou.com

Copyright © 2014, WeatherForYou.com LLC. All rights reserved.